TimeEST,TemperatureF,Dew PointF,Humidity,Sea Level PressureIn,VisibilityMPH,Wind Direction,Wind SpeedMPH,Gust SpeedMPH,PrecipitationIn,Events,Conditions,WindDirDegrees,DateUTC
12:53 AM,46.0,42.1,86,29.86,10.0,SE,5.8,-,N/A,,Scattered Clouds,140,2014-01-11 05:53:00
1:53 AM,48.0,43.0,83,29.82,10.0,SSE,8.1,-,N/A,,Mostly Cloudy,160,2014-01-11 06:53:00
2:53 AM,48.0,43.0,83,29.79,10.0,SSE,8.1,-,N/A,,Clear,160,2014-01-11 07:53:00
3:53 AM,48.9,44.1,83,29.75,6.0,SSE,6.9,-,N/A,,Haze,150,2014-01-11 08:53:00
4:53 AM,48.9,44.1,83,29.69,10.0,SE,8.1,-,N/A,,Partly Cloudy,140,2014-01-11 09:53:00
5:53 AM,51.1,45.0,80,29.63,10.0,SSE,8.1,-,N/A,,Clear,150,2014-01-11 10:53:00
6:53 AM,51.1,46.0,83,29.58,10.0,SE,8.1,-,N/A,,Scattered Clouds,140,2014-01-11 11:53:00
7:53 AM,54.0,46.9,77,29.58,10.0,WNW,16.1,27.6,N/A,,Overcast,300,2014-01-11 12:53:00
8:12 AM,53.6,48.2,82,29.58,3.0,NW,13.8,24.2,0.08,Rain-Thunderstorm,Thunderstorms and Rain,320,2014-01-11 13:12:00
8:33 AM,51.8,48.2,88,29.57,8.0,NW,10.4,-,0.10,Rain-Thunderstorm,Thunderstorms and Rain,320,2014-01-11 13:33:00
8:48 AM,51.8,48.2,88,29.58,3.0,Variable,4.6,-,0.13,Rain,Rain,0,2014-01-11 13:48:00
8:53 AM,52.0,48.9,89,29.61,2.5,WNW,5.8,-,0.14,Rain,Rain,300,2014-01-11 13:53:00
8:57 AM,51.8,48.2,88,29.58,3.0,West,8.1,-,0.01,Rain,Light Rain,270,2014-01-11 13:57:00
9:53 AM,52.0,48.9,89,29.60,4.0,WSW,6.9,-,0.13,Rain,Light Rain,240,2014-01-11 14:53:00
10:53 AM,51.1,50.0,96,29.56,1.0,SSE,10.4,-,0.14,Rain,Light Rain,150,2014-01-11 15:53:00
10:56 AM,51.8,48.2,88,29.53,0.2,SE,10.4,-,0.00,Fog-Rain,Light Rain,140,2014-01-11 15:56:00
11:07 AM,51.8,50.0,94,29.52,0.2,SSE,11.5,-,0.00,Fog-Rain,Light Rain,160,2014-01-11 16:07:00
11:14 AM,51.8,50.0,94,29.52,1.0,SSE,13.8,-,0.00,,Overcast,160,2014-01-11 16:14:00
11:17 AM,51.8,50.0,94,29.52,3.0,SSE,12.7,-,0.01,,Overcast,160,2014-01-11 16:17:00
11:24 AM,51.8,50.0,94,29.52,6.0,SSE,11.5,-,0.01,Rain,Light Rain,160,2014-01-11 16:24:00
11:53 AM,52.0,50.0,93,29.51,10.0,SSE,12.7,-,0.02,Rain,Light Rain,150,2014-01-11 16:53:00
12:53 PM,52.0,50.0,93,29.42,10.0,South,17.3,24.2,0.02,,Overcast,180,2014-01-11 17:53:00
1:53 PM,53.1,50.0,89,29.40,10.0,South,12.7,20.7,N/A,,Overcast,190,2014-01-11 18:53:00
2:53 PM,54.0,48.9,83,29.39,10.0,SW,16.1,24.2,0.00,,Mostly Cloudy,220,2014-01-11 19:53:00
3:05 PM,55.4,46.4,72,29.38,10.0,SW,18.4,26.5,N/A,,Scattered Clouds,220,2014-01-11 20:05:00
3:53 PM,54.0,44.1,69,29.41,10.0,SW,17.3,25.3,N/A,,Clear,230,2014-01-11 20:53:00
4:53 PM,53.1,42.1,66,29.40,10.0,WSW,13.8,25.3,N/A,,Clear,240,2014-01-11 21:53:00
5:53 PM,48.9,42.1,77,29.43,10.0,WNW,19.6,29.9,0.00,,Overcast,290,2014-01-11 22:53:00
6:24 PM,46.4,37.4,71,29.44,10.0,West,24.2,38.0,0.00,,Overcast,280,2014-01-11 23:24:00
6:53 PM,45.0,36.0,71,29.48,10.0,West,16.1,31.1,0.00,,Overcast,280,2014-01-11 23:53:00
7:00 PM,44.6,35.6,71,29.46,10.0,West,19.6,28.8,N/A,,Overcast,270,2014-01-12 00:00:00
7:10 PM,44.6,35.6,71,29.47,10.0,West,23.0,34.5,N/A,,Mostly Cloudy,260,2014-01-12 00:10:00
7:48 PM,44.6,35.6,71,29.50,10.0,West,15.0,26.5,N/A,,Mostly Cloudy,270,2014-01-12 00:48:00
7:53 PM,44.1,35.1,71,29.52,10.0,West,17.3,26.5,N/A,,Overcast,270,2014-01-12 00:53:00
8:22 PM,42.8,30.2,61,29.53,10.0,West,15.0,34.5,N/A,,Overcast,280,2014-01-12 01:22:00
8:53 PM,41.0,30.0,65,29.58,10.0,West,19.6,26.5,N/A,,Overcast,270,2014-01-12 01:53:00
9:07 PM,41.0,30.2,65,29.57,10.0,West,19.6,27.6,N/A,,Overcast,260,2014-01-12 02:07:00
9:53 PM,41.0,30.9,67,29.62,10.0,West,12.7,17.3,N/A,,Overcast,270,2014-01-12 02:53:00
10:53 PM,39.0,32.0,76,29.67,10.0,West,13.8,23.0,N/A,,Overcast,260,2014-01-12 03:53:00
11:53 PM,37.9,30.9,76,29.69,10.0,West,15.0,20.7,N/A,,Overcast,270,2014-01-12 04:53:00